Weather in Bulatnikovo

Russia / Vladimir Oblast     55°41′14″N   41°45′31″E
temp.,
°C
wind,
m/s
gust,
m/s
humid.,
%
clouds,
%
prec.,
mm/h
press.,
hPa
HPBL,
m
28 february, sun
sun2800:00−13nnw239781 0.0 101276
03:00−14nnw239777 0.1 101473
06:00−13nnw239695 0.1 101468
09:00−11nnw259390 0.2 1015279
12:00−8nnw248598 0.1 1015517
15:00−6n248598 0.1 1016625
18:00−9nnw2293100 0.0 101721
21:00−8nne2495100 0.1 1019128
1 march, mon
mon100:00−9n1295100 0.1 102133
03:00−11nw229598 0.1 102225
06:00−9w2396100 0.1 102343
09:00−7wsw349598 0.1 1024164
12:00−3wsw478992 0.0 1022640
15:00−2wsw588896 0.1 1021738
18:00−2wsw51192100 0.1 1018559
21:000wsw61293100 0.1 1015592
2 march, tue
tue200:00+1w61394100 0.1 1011688
03:00+1w61398100 0.4 1009721
06:00+1w61297100 0.1 1007741
09:00+1wnw5129599 0.4 1006803
12:00+1wnw6109188 0.3 1006992
15:00+1wnw598894 0.4 1006946
18:00−1wnw41090100 0.1 1005524
21:00−2nw499398 0.3 1007520
3 march, wed
wed300:00−2nw4995100 0.3 1007448
03:00−3wnw499695 0.3 1008311
06:00−4nw499595 0.1 1008274
09:00−3nw489497 0.3 1011594
12:00−2nnw5883100 0.4 1012996
15:00−4nw6985100 0.5 1013821
18:00−6w388966 0.0 1013171
21:00−5w4119253 0.0 1013311
4 march, thu
thu400:00−3w4109594 0.1 1010467
03:00−3wsw5119397 0.1 1007539
06:00−2wsw61390100 0.0 1004746
09:00−1sw81590100 0.4 1000858
12:000wsw91587100 0.1 9971193
15:000wsw81588100 0.2 9961269
18:00−1w61573100 0.9 9961102
21:00−4wnw6148458 0.9 999720